Time,TemperatureF,DewpointF,PressureIn,WindDirection,WindDirectionDegrees,WindSpeedMPH,WindSpeedGustMPH,Humidity,HourlyPrecipIn,Conditions,Clouds,dailyrainin,SoftwareType,DateUTC
2013-08-25 00:04:00,80.2,69.1,30.01,North,0,0.0,0.0,70,0.00,,,0.00,WUHU216HW,2013-08-25 05:04:00,
2013-08-25 00:09:00,79.8,69.6,30.01,North,0,0.0,0.0,71,0.00,,,0.00,WUHU216HW,2013-08-25 05:09:00,
2013-08-25 00:14:00,79.8,69.6,30.01,North,0,0.0,0.0,71,0.00,,,0.00,WUHU216HW,2013-08-25 05:14:00,
2013-08-25 00:19:00,79.8,69.6,30.02,North,0,0.0,0.0,71,0.00,,,0.00,WUHU216HW,2013-08-25 05:19:00,
2013-08-25 00:24:00,79.7,69.8,30.02,North,0,0.0,0.0,72,0.00,,,0.00,WUHU216HW,2013-08-25 05:24:00,
2013-08-25 00:29:00,79.5,69.6,30.02,North,0,0.0,0.0,72,0.00,,,0.00,WUHU216HW,2013-08-25 05:29:00,
2013-08-25 00:34:00,79.5,69.6,30.02,North,0,0.0,0.0,72,0.00,,,0.00,WUHU216HW,2013-08-25 05:34:00,
2013-08-25 00:39:00,79.3,69.5,30.02,North,0,0.0,0.0,72,0.00,,,0.00,WUHU216HW,2013-08-25 05:39:00,
2013-08-25 00:44:00,79.3,69.5,30.02,North,0,0.0,0.0,72,0.00,,,0.00,WUHU216HW,2013-08-25 05:44:00,
2013-08-25 00:55:00,78.6,69.2,30.02,North,0,0.0,0.0,73,0.00,,,0.00,WUHU216HW,2013-08-25 05:55:00,
2013-08-25 01:00:00,78.6,69.2,30.02,North,0,0.0,0.0,74,0.00,,,0.00,WUHU216HW,2013-08-25 06:00:00,
2013-08-25 01:05:00,78.6,69.2,30.02,North,0,0.0,0.0,74,0.00,,,0.00,WUHU216HW,2013-08-25 06:05:00,
2013-08-25 01:10:00,78.4,69.4,30.02,North,0,0.0,0.0,74,0.00,,,0.00,WUHU216HW,2013-08-25 06:10:00,
2013-08-25 01:15:00,78.4,69.4,30.02,North,0,0.0,0.0,74,0.00,,,0.00,WUHU216HW,2013-08-25 06:15:00,
2013-08-25 01:20:00,78.0,69.0,30.03,North,0,0.0,0.0,74,0.00,,,0.00,WUHU216HW,2013-08-25 06:20:00,
2013-08-25 01:25:00,77.9,68.9,30.03,North,0,0.0,0.0,75,0.00,,,0.00,WUHU216HW,2013-08-25 06:25:00,
2013-08-25 01:30:00,77.7,69.1,30.02,North,0,0.0,0.0,75,0.00,,,0.00,WUHU216HW,2013-08-25 06:30:00,
2013-08-25 01:35:00,77.5,68.9,30.02,North,0,0.0,0.0,75,0.00,,,0.00,WUHU216HW,2013-08-25 06:35:00,
2013-08-25 01:40:00,77.3,68.7,30.02,North,0,0.0,0.0,76,0.00,,,0.00,WUHU216HW,2013-08-25 06:40:00,
2013-08-25 01:45:00,77.3,68.7,30.02,North,0,0.0,0.0,76,0.00,,,0.00,WUHU216HW,2013-08-25 06:45:00,
2013-08-25 01:55:00,76.8,68.6,30.02,North,0,0.0,0.0,76,0.00,,,0.00,WUHU216HW,2013-08-25 06:55:00,
2013-08-25 02:00:00,76.8,68.6,30.02,North,0,0.0,0.0,77,0.00,,,0.00,WUHU216HW,2013-08-25 07:00:00,
2013-08-25 02:05:00,76.8,68.6,30.02,North,0,0.0,0.0,77,0.00,,,0.00,WUHU216HW,2013-08-25 07:05:00,
2013-08-25 02:10:00,76.6,68.8,30.02,North,0,0.0,0.0,77,0.00,,,0.00,WUHU216HW,2013-08-25 07:10:00,
2013-08-25 02:15:00,76.6,68.8,30.03,North,0,0.0,0.0,77,0.00,,,0.00,WUHU216HW,2013-08-25 07:15:00,
2013-08-25 02:20:00,76.6,68.8,30.03,North,0,0.0,0.0,77,0.00,,,0.00,WUHU216HW,2013-08-25 07:20:00,
2013-08-25 02:25:00,76.6,68.8,30.03,North,0,0.0,0.0,77,0.00,,,0.00,WUHU216HW,2013-08-25 07:25:00,
2013-08-25 02:30:00,76.2,68.5,30.02,North,0,0.0,0.0,77,0.00,,,0.00,WUHU216HW,2013-08-25 07:30:00,
2013-08-25 02:35:00,76.2,68.5,30.02,North,0,0.0,0.0,77,0.00,,,0.00,WUHU216HW,2013-08-25 07:35:00,
2013-08-25 02:40:00,76.2,68.5,30.02,North,0,0.0,0.0,77,0.00,,,0.00,WUHU216HW,2013-08-25 07:40:00,
2013-08-25 02:45:00,76.1,68.3,30.02,North,0,0.0,0.0,77,0.00,,,0.00,WUHU216HW,2013-08-25 07:45:00,
2013-08-25 02:50:00,76.1,68.3,30.02,North,0,0.0,0.0,77,0.00,,,0.00,WUHU216HW,2013-08-25 07:50:00,
2013-08-25 02:55:00,75.9,68.2,30.02,North,0,0.0,0.0,77,0.00,,,0.00,WUHU216HW,2013-08-25 07:55:00,
2013-08-25 03:00:00,75.7,68.0,30.03,North,0,0.0,0.0,77,0.00,,,0.00,WUHU216HW,2013-08-25 08:00:00,
2013-08-25 03:05:00,75.7,68.0,30.03,North,0,0.0,0.0,77,0.00,,,0.00,WUHU216HW,2013-08-25 08:05:00,
2013-08-25 03:12:00,75.9,68.5,30.03,North,0,0.0,0.0,78,0.00,,,0.00,WUHU216HW,2013-08-25 08:12:00,
2013-08-25 03:17:00,75.9,68.5,30.03,North,0,0.0,0.0,78,0.00,,,0.00,WUHU216HW,2013-08-25 08:17:00,
2013-08-25 03:26:00,76.1,68.3,30.03,North,0,0.0,0.0,77,0.00,,,0.00,WUHU216HW,2013-08-25 08:26:00,
2013-08-25 03:31:00,75.9,68.2,30.03,North,0,0.0,0.0,77,0.00,,,0.00,WUHU216HW,2013-08-25 08:31:00,
2013-08-25 03:36:00,75.7,68.0,30.03,North,0,0.0,0.0,77,0.00,,,0.00,WUHU216HW,2013-08-25 08:36:00,
2013-08-25 03:41:00,75.7,68.0,30.03,North,0,0.0,0.0,77,0.00,,,0.00,WUHU216HW,2013-08-25 08:41:00,
2013-08-25 03:46:00,75.7,68.0,30.03,North,0,0.0,0.0,77,0.00,,,0.00,WUHU216HW,2013-08-25 08:46:00,
2013-08-25 03:58:00,74.8,67.1,30.03,North,0,0.0,0.0,78,0.00,,,0.00,WUHU216HW,2013-08-25 08:58:00,
2013-08-25 04:11:00,74.1,66.8,30.03,North,0,0.0,0.0,78,0.00,,,0.00,WUHU216HW,2013-08-25 09:11:00,
2013-08-25 04:16:00,73.9,66.6,30.04,North,0,0.0,0.0,78,0.00,,,0.00,WUHU216HW,2013-08-25 09:16:00,
2013-08-25 04:21:00,73.7,66.9,30.03,North,0,0.0,0.0,79,0.00,,,0.00,WUHU216HW,2013-08-25 09:21:00,
2013-08-25 04:26:00,73.5,66.7,30.03,North,0,0.0,0.0,79,0.00,,,0.00,WUHU216HW,2013-08-25 09:26:00,
2013-08-25 04:31:00,73.2,66.3,30.03,North,0,0.0,0.0,79,0.00,,,0.00,WUHU216HW,2013-08-25 09:31:00,
2013-08-25 04:36:00,73.0,66.5,30.04,North,0,0.0,0.0,80,0.00,,,0.00,WUHU216HW,2013-08-25 09:36:00,
2013-08-25 04:41:00,72.8,66.3,30.03,North,0,0.0,0.0,80,0.00,,,0.00,WUHU216HW,2013-08-25 09:41:00,
2013-08-25 04:46:00,72.8,66.3,30.03,North,0,0.0,0.0,80,0.00,,,0.00,WUHU216HW,2013-08-25 09:46:00,
2013-08-25 04:51:00,72.6,66.2,30.03,North,0,0.0,0.0,80,0.00,,,0.00,WUHU216HW,2013-08-25 09:51:00,
2013-08-25 04:56:00,72.6,66.2,30.03,North,0,0.0,0.0,80,0.00,,,0.00,WUHU216HW,2013-08-25 09:56:00,
2013-08-25 05:01:00,72.3,66.1,30.03,North,0,0.0,0.0,81,0.00,,,0.00,WUHU216HW,2013-08-25 10:01:00,
2013-08-25 05:06:00,72.1,66.0,30.03,North,0,0.0,0.0,81,0.00,,,0.00,WUHU216HW,2013-08-25 10:06:00,
2013-08-25 05:11:00,72.1,66.0,30.03,North,0,0.0,0.0,81,0.00,,,0.00,WUHU216HW,2013-08-25 10:11:00,
2013-08-25 05:16:00,72.1,66.0,30.03,North,0,0.0,0.0,81,0.00,,,0.00,WUHU216HW,2013-08-25 10:16:00,
2013-08-25 05:21:00,72.1,66.0,30.03,North,0,0.0,0.0,81,0.00,,,0.00,WUHU216HW,2013-08-25 10:21:00,
2013-08-25 05:30:00,71.7,65.6,30.04,North,0,0.0,0.0,81,0.00,,,0.00,WUHU216HW,2013-08-25 10:30:00,
2013-08-25 05:35:00,71.4,65.2,30.04,North,0,0.0,0.0,81,0.00,,,0.00,WUHU216HW,2013-08-25 10:35:00,
2013-08-25 05:40:00,71.4,65.2,30.04,North,0,0.0,0.0,82,0.00,,,0.00,WUHU216HW,2013-08-25 10:40:00,
2013-08-25 05:45:00,71.2,65.4,30.04,North,0,0.0,0.0,82,0.00,,,0.00,WUHU216HW,2013-08-25 10:45:00,
2013-08-25 05:50:00,71.2,65.4,30.04,North,0,0.0,0.0,82,0.00,,,0.00,WUHU216HW,2013-08-25 10:50:00,
2013-08-25 05:55:00,70.8,65.0,30.04,North,0,0.0,0.0,82,0.00,,,0.00,WUHU216HW,2013-08-25 10:55:00,
2013-08-25 06:00:00,70.8,65.0,30.04,North,0,0.0,0.0,82,0.00,,,0.00,WUHU216HW,2013-08-25 11:00:00,
2013-08-25 06:05:00,70.8,65.0,30.04,North,0,0.0,0.0,82,0.00,,,0.00,WUHU216HW,2013-08-25 11:05:00,
2013-08-25 06:10:00,70.5,65.0,30.04,North,0,0.0,0.0,83,0.00,,,0.00,WUHU216HW,2013-08-25 11:10:00,
2013-08-25 06:15:00,70.5,65.0,30.04,North,0,0.0,0.0,83,0.00,,,0.00,WUHU216HW,2013-08-25 11:15:00,
2013-08-25 06:20:00,70.3,64.8,30.04,North,0,0.0,0.0,83,0.00,,,0.00,WUHU216HW,2013-08-25 11:20:00,
2013-08-25 06:25:00,70.3,64.8,30.04,North,0,0.0,0.0,83,0.00,,,0.00,WUHU216HW,2013-08-25 11:25:00,
2013-08-25 06:30:00,69.9,64.5,30.05,North,0,0.0,0.0,83,0.00,,,0.00,WUHU216HW,2013-08-25 11:30:00,
2013-08-25 06:35:00,69.9,64.5,30.05,North,0,0.0,0.0,83,0.00,,,0.00,WUHU216HW,2013-08-25 11:35:00,
2013-08-25 06:40:00,69.9,64.5,30.04,North,0,0.0,0.0,84,0.00,,,0.00,WUHU216HW,2013-08-25 11:40:00,
2013-08-25 06:45:00,69.6,64.5,30.04,North,0,0.0,0.0,84,0.00,,,0.00,WUHU216HW,2013-08-25 11:45:00,
2013-08-25 06:50:00,69.6,64.5,30.05,North,0,0.0,0.0,84,0.00,,,0.00,WUHU216HW,2013-08-25 11:50:00,
2013-08-25 06:55:00,69.6,64.5,30.05,North,0,0.0,0.0,84,0.00,,,0.00,WUHU216HW,2013-08-25 11:55:00,
2013-08-25 07:12:00,69.0,64.0,30.05,North,0,0.0,0.0,84,0.00,,,0.00,WUHU216HW,2013-08-25 12:12:00,
2013-08-25 07:17:00,69.0,64.0,30.05,North,0,0.0,0.0,84,0.00,,,0.00,WUHU216HW,2013-08-25 12:17:00,
2013-08-25 07:22:00,68.9,64.1,30.05,North,0,0.0,0.0,85,0.00,,,0.00,WUHU216HW,2013-08-25 12:22:00,
2013-08-25 07:27:00,68.9,64.1,30.05,North,0,0.0,0.0,85,0.00,,,0.00,WUHU216HW,2013-08-25 12:27:00,
2013-08-25 07:39:00,69.0,64.3,30.05,North,0,0.0,0.0,85,0.00,,,0.00,WUHU216HW,2013-08-25 12:39:00,
2013-08-25 07:44:00,69.4,64.6,30.05,North,0,0.0,0.0,85,0.00,,,0.00,WUHU216HW,2013-08-25 12:44:00,
2013-08-25 07:49:00,69.9,65.5,30.05,North,0,0.0,0.0,86,0.00,,,0.00,WUHU216HW,2013-08-25 12:49:00,
2013-08-25 07:54:00,70.3,65.9,30.05,North,0,0.0,0.0,86,0.00,,,0.00,WUHU216HW,2013-08-25 12:54:00,
2013-08-25 07:59:00,70.7,66.2,30.05,North,0,0.0,0.0,86,0.00,,,0.00,WUHU216HW,2013-08-25 12:59:00,
2013-08-25 08:04:00,71.0,66.6,30.06,North,0,0.0,0.0,86,0.00,,,0.00,WUHU216HW,2013-08-25 13:04:00,
2013-08-25 08:09:00,71.0,66.6,30.06,North,0,0.0,0.0,86,0.00,,,0.00,WUHU216HW,2013-08-25 13:09:00,
2013-08-25 08:23:00,73.7,68.9,30.07,North,0,0.0,0.0,85,0.00,,,0.00,WUHU216HW,2013-08-25 13:23:00,
2013-08-25 08:28:00,73.7,68.9,30.07,North,0,0.0,0.0,85,0.00,,,0.00,WUHU216HW,2013-08-25 13:28:00,
2013-08-25 08:33:00,75.0,69.5,30.06,North,0,0.0,0.0,83,0.00,,,0.00,WUHU216HW,2013-08-25 13:33:00,
2013-08-25 08:38:00,75.0,69.5,30.06,North,0,0.0,0.0,83,0.00,,,0.00,WUHU216HW,2013-08-25 13:38:00,
2013-08-25 08:43:00,77.5,69.3,30.06,North,0,0.0,0.0,76,0.00,,,0.00,WUHU216HW,2013-08-25 13:43:00,
2013-08-25 08:48:00,77.7,68.7,30.06,North,0,0.0,0.0,74,0.00,,,0.00,WUHU216HW,2013-08-25 13:48:00,
2013-08-25 08:53:00,77.7,68.7,30.06,North,0,0.0,0.0,74,0.00,,,0.00,WUHU216HW,2013-08-25 13:53:00,
2013-08-25 09:12:00,80.6,69.5,30.06,North,0,0.0,0.0,69,0.00,,,0.00,WUHU216HW,2013-08-25 14:12:00,
2013-08-25 09:17:00,80.9,69.8,30.06,North,0,0.0,0.0,69,0.00,,,0.00,WUHU216HW,2013-08-25 14:17:00,
2013-08-25 09:22:00,81.5,69.8,30.06,North,0,0.0,0.0,68,0.00,,,0.00,WUHU216HW,2013-08-25 14:22:00,
2013-08-25 09:27:00,81.6,70.0,30.06,North,0,0.0,0.0,68,0.00,,,0.00,WUHU216HW,2013-08-25 14:27:00,
2013-08-25 09:32:00,82.0,70.3,30.06,North,0,0.0,0.0,68,0.00,,,0.00,WUHU216HW,2013-08-25 14:32:00,
2013-08-25 09:37:00,82.9,70.3,30.06,North,0,0.0,0.0,66,0.00,,,0.00,WUHU216HW,2013-08-25 14:37:00,
2013-08-25 09:42:00,83.1,70.0,30.06,North,0,0.0,0.0,65,0.00,,,0.00,WUHU216HW,2013-08-25 14:42:00,
2013-08-25 09:47:00,83.1,70.0,30.06,North,0,0.0,0.0,65,0.00,,,0.00,WUHU216HW,2013-08-25 14:47:00,
2013-08-25 10:08:00,84.7,70.7,30.07,North,0,0.0,0.0,63,0.00,,,0.00,WUHU216HW,2013-08-25 15:08:00,
2013-08-25 10:13:00,84.7,70.7,30.07,North,0,0.0,0.0,63,0.00,,,0.00,WUHU216HW,2013-08-25 15:13:00,
2013-08-25 10:43:00,85.2,70.3,30.07,North,0,0.0,0.0,61,0.00,,,0.00,WUHU216HW,2013-08-25 15:43:00,
2013-08-25 10:55:00,85.1,69.7,30.07,North,0,0.0,0.0,60,0.00,,,0.00,WUHU216HW,2013-08-25 15:55:00,
2013-08-25 11:00:00,85.2,70.3,30.07,North,0,0.0,0.0,59,0.00,,,0.00,WUHU216HW,2013-08-25 16:00:00,
2013-08-25 11:05:00,85.1,69.7,30.07,North,0,0.0,0.0,59,0.00,,,0.00,WUHU216HW,2013-08-25 16:05:00,
2013-08-25 11:10:00,85.6,69.6,30.07,North,0,0.0,0.0,59,0.00,,,0.00,WUHU216HW,2013-08-25 16:10:00,
2013-08-25 11:15:00,87.4,69.8,30.07,North,0,0.0,0.0,55,0.00,,,0.00,WUHU216HW,2013-08-25 16:15:00,
2013-08-25 11:20:00,86.5,68.9,30.07,North,0,0.0,0.0,56,0.00,,,0.00,WUHU216HW,2013-08-25 16:20:00,
2013-08-25 11:25:00,85.6,69.1,30.07,North,0,0.0,0.0,58,0.00,,,0.00,WUHU216HW,2013-08-25 16:25:00,
2013-08-25 11:30:00,86.5,70.0,30.07,North,0,0.0,0.0,58,0.00,,,0.00,WUHU216HW,2013-08-25 16:30:00,
2013-08-25 11:35:00,88.8,69.5,30.07,North,0,0.0,0.0,54,0.00,,,0.00,WUHU216HW,2013-08-25 16:35:00,
2013-08-25 11:40:00,88.1,69.4,30.07,North,0,0.0,0.0,54,0.00,,,0.00,WUHU216HW,2013-08-25 16:40:00,
2013-08-25 11:45:00,87.0,68.9,30.07,North,0,0.0,0.0,56,0.00,,,0.00,WUHU216HW,2013-08-25 16:45:00,
2013-08-25 11:50:00,87.4,68.2,30.07,North,0,0.0,0.0,54,0.00,,,0.00,WUHU216HW,2013-08-25 16:50:00,
2013-08-25 11:55:00,88.5,68.1,30.06,North,0,0.0,0.0,51,0.00,,,0.00,WUHU216HW,2013-08-25 16:55:00,
2013-08-25 12:00:00,88.8,68.4,30.06,North,0,0.0,0.0,51,0.00,,,0.00,WUHU216HW,2013-08-25 17:00:00,
2013-08-25 12:05:00,88.7,68.2,30.06,North,0,0.0,0.0,51,0.00,,,0.00,WUHU216HW,2013-08-25 17:05:00,
2013-08-25 12:10:00,88.7,68.2,30.06,North,0,0.0,0.0,51,0.00,,,0.00,WUHU216HW,2013-08-25 17:10:00,
2013-08-25 12:26:00,89.4,68.3,30.06,North,0,0.0,0.0,50,0.00,,,0.00,WUHU216HW,2013-08-25 17:26:00,
2013-08-25 12:31:00,90.5,68.0,30.06,North,0,0.0,0.0,48,0.00,,,0.00,WUHU216HW,2013-08-25 17:31:00,
2013-08-25 12:36:00,90.8,67.0,30.06,North,0,0.0,0.0,46,0.00,,,0.00,WUHU216HW,2013-08-25 17:36:00,
2013-08-25 12:41:00,90.3,67.2,30.06,North,0,0.0,0.0,47,0.00,,,0.00,WUHU216HW,2013-08-25 17:41:00,
2013-08-25 12:46:00,90.6,68.2,30.06,North,0,0.0,0.0,48,0.00,,,0.00,WUHU216HW,2013-08-25 17:46:00,
2013-08-25 12:51:00,90.6,68.2,30.06,North,0,0.0,0.0,48,0.00,,,0.00,WUHU216HW,2013-08-25 17:51:00,
2013-08-25 13:00:00,94.1,68.0,30.05,North,0,0.0,0.0,43,0.00,,,0.00,WUHU216HW,2013-08-25 18:00:00,
2013-08-25 13:30:00,92.8,68.2,30.05,North,0,0.0,0.0,45,0.00,,,0.00,WUHU216HW,2013-08-25 18:30:00,
2013-08-25 13:35:00,92.4,68.5,30.05,North,0,0.0,0.0,46,0.00,,,0.00,WUHU216HW,2013-08-25 18:35:00,
2013-08-25 13:40:00,93.7,68.4,30.05,North,0,0.0,0.0,43,0.00,,,0.00,WUHU216HW,2013-08-25 18:40:00,
2013-08-25 13:45:00,95.9,69.0,30.05,North,0,0.0,0.0,42,0.00,,,0.00,WUHU216HW,2013-08-25 18:45:00,
2013-08-25 13:50:00,95.9,69.0,30.05,North,0,0.0,0.0,42,0.00,,,0.00,WUHU216HW,2013-08-25 18:50:00,
2013-08-25 13:55:00,94.6,67.9,30.05,North,0,0.0,0.0,42,0.00,,,0.00,WUHU216HW,2013-08-25 18:55:00,
2013-08-25 14:00:00,94.6,67.9,30.05,North,0,0.0,0.0,42,0.00,,,0.00,WUHU216HW,2013-08-25 19:00:00,
2013-08-25 14:12:00,96.4,68.2,30.04,North,0,0.0,0.0,40,0.00,,,0.00,WUHU216HW,2013-08-25 19:12:00,
2013-08-25 14:17:00,94.8,68.0,30.04,North,0,0.0,0.0,42,0.00,,,0.00,WUHU216HW,2013-08-25 19:17:00,
2013-08-25 14:22:00,93.7,67.7,30.04,North,0,0.0,0.0,43,0.00,,,0.00,WUHU216HW,2013-08-25 19:22:00,
2013-08-25 14:27:00,95.5,68.0,30.04,North,0,0.0,0.0,41,0.00,,,0.00,WUHU216HW,2013-08-25 19:27:00,
2013-08-25 14:32:00,96.0,67.8,30.04,North,0,0.0,0.0,40,0.00,,,0.00,WUHU216HW,2013-08-25 19:32:00,
2013-08-25 14:37:00,96.0,68.5,30.04,North,0,0.0,0.0,40,0.00,,,0.00,WUHU216HW,2013-08-25 19:37:00,
2013-08-25 14:42:00,96.4,68.2,30.04,North,0,0.0,0.0,40,0.00,,,0.00,WUHU216HW,2013-08-25 19:42:00,
2013-08-25 14:47:00,96.0,67.8,30.04,North,0,0.0,0.0,40,0.00,,,0.00,WUHU216HW,2013-08-25 19:47:00,
2013-08-25 14:52:00,96.9,67.8,30.04,North,0,0.0,0.0,39,0.00,,,0.00,WUHU216HW,2013-08-25 19:52:00,
2013-08-25 14:57:00,97.8,67.8,30.03,North,0,0.0,0.0,38,0.00,,,0.00,WUHU216HW,2013-08-25 19:57:00,
2013-08-25 15:02:00,97.8,67.8,30.03,North,0,0.0,0.0,38,0.00,,,0.00,WUHU216HW,2013-08-25 20:02:00,
2013-08-25 15:07:00,95.5,68.0,30.03,North,0,0.0,0.0,41,0.00,,,0.00,WUHU216HW,2013-08-25 20:07:00,
2013-08-25 15:12:00,93.5,66.2,30.03,North,0,0.0,0.0,41,0.00,,,0.00,WUHU216HW,2013-08-25 20:12:00,
2013-08-25 15:17:00,95.1,67.0,30.03,North,0,0.0,0.0,40,0.00,,,0.00,WUHU216HW,2013-08-25 20:17:00,
2013-08-25 15:22:00,97.5,68.3,30.03,North,0,0.0,0.0,39,0.00,,,0.00,WUHU216HW,2013-08-25 20:22:00,
2013-08-25 15:27:00,99.1,68.9,30.02,North,0,0.0,0.0,38,0.00,,,0.00,WUHU216HW,2013-08-25 20:27:00,
2013-08-25 15:32:00,98.6,67.6,30.02,North,0,0.0,0.0,37,0.00,,,0.00,WUHU216HW,2013-08-25 20:32:00,
2013-08-25 15:37:00,94.8,66.7,30.02,North,0,0.0,0.0,40,0.00,,,0.00,WUHU216HW,2013-08-25 20:37:00,
2013-08-25 15:42:00,94.2,67.5,30.02,North,0,0.0,0.0,42,0.00,,,0.00,WUHU216HW,2013-08-25 20:42:00,
2013-08-25 15:47:00,94.1,66.7,30.01,North,0,0.0,0.0,41,0.00,,,0.00,WUHU216HW,2013-08-25 20:47:00,
2013-08-25 15:52:00,94.1,67.4,30.01,North,0,0.0,0.0,42,0.00,,,0.00,WUHU216HW,2013-08-25 20:52:00,
2013-08-25 15:57:00,94.1,67.4,30.01,North,0,0.0,0.0,42,0.00,,,0.00,WUHU216HW,2013-08-25 20:57:00,
2013-08-25 16:02:00,94.4,68.4,30.01,North,0,0.0,0.0,43,0.00,,,0.00,WUHU216HW,2013-08-25 21:02:00,
2013-08-25 16:07:00,94.4,68.4,30.01,North,0,0.0,0.0,43,0.00,,,0.00,WUHU216HW,2013-08-25 21:07:00,
2013-08-25 16:39:00,97.1,68.8,30.00,North,0,0.0,0.0,40,0.00,,,0.00,WUHU216HW,2013-08-25 21:39:00,
2013-08-25 16:44:00,93.9,67.9,30.00,North,0,0.0,0.0,43,0.00,,,0.00,WUHU216HW,2013-08-25 21:44:00,
2013-08-25 16:49:00,93.9,67.9,30.00,North,0,0.0,0.0,43,0.00,,,0.00,WUHU216HW,2013-08-25 21:49:00,
2013-08-25 16:54:00,92.4,67.2,30.00,North,0,0.0,0.0,44,0.00,,,0.00,WUHU216HW,2013-08-25 21:54:00,
2013-08-25 16:59:00,92.4,67.2,30.00,North,0,0.0,0.0,44,0.00,,,0.00,WUHU216HW,2013-08-25 21:59:00,
2013-08-25 17:04:00,92.8,67.5,30.00,North,0,0.0,0.0,44,0.00,,,0.00,WUHU216HW,2013-08-25 22:04:00,
2013-08-25 17:09:00,92.8,67.5,30.00,North,0,0.0,0.0,44,0.00,,,0.00,WUHU216HW,2013-08-25 22:09:00,
2013-08-25 17:14:00,92.8,67.5,29.99,North,0,0.0,0.0,44,0.00,,,0.00,WUHU216HW,2013-08-25 22:14:00,
2013-08-25 17:19:00,93.5,67.5,29.99,North,0,0.0,0.0,43,0.00,,,0.00,WUHU216HW,2013-08-25 22:19:00,
2013-08-25 17:24:00,93.5,67.5,29.99,North,0,0.0,0.0,43,0.00,,,0.00,WUHU216HW,2013-08-25 22:24:00,
2013-08-25 17:34:00,93.3,67.4,29.99,North,0,0.0,0.0,43,0.00,,,0.00,WUHU216HW,2013-08-25 22:34:00,
2013-08-25 17:39:00,92.1,66.9,29.99,North,0,0.0,0.0,44,0.00,,,0.00,WUHU216HW,2013-08-25 22:39:00,
2013-08-25 17:44:00,92.4,67.8,29.99,North,0,0.0,0.0,45,0.00,,,0.00,WUHU216HW,2013-08-25 22:44:00,
2013-08-25 17:49:00,92.4,67.8,30.00,North,0,0.0,0.0,45,0.00,,,0.00,WUHU216HW,2013-08-25 22:49:00,
2013-08-25 17:54:00,92.1,67.5,29.99,North,0,0.0,0.0,45,0.00,,,0.00,WUHU216HW,2013-08-25 22:54:00,
2013-08-25 17:59:00,91.2,68.0,30.00,North,0,0.0,0.0,47,0.00,,,0.00,WUHU216HW,2013-08-25 22:59:00,
2013-08-25 18:04:00,91.5,67.7,30.00,North,0,0.0,0.0,46,0.00,,,0.00,WUHU216HW,2013-08-25 23:04:00,
2013-08-25 18:09:00,91.7,67.2,29.99,North,0,0.0,0.0,45,0.00,,,0.00,WUHU216HW,2013-08-25 23:09:00,
2013-08-25 18:14:00,91.7,67.2,29.99,North,0,0.0,0.0,45,0.00,,,0.00,WUHU216HW,2013-08-25 23:14:00,
2013-08-25 18:25:00,90.6,68.2,30.00,North,0,0.0,0.0,48,0.00,,,0.00,WUHU216HW,2013-08-25 23:25:00,
2013-08-25 18:30:00,90.1,68.3,30.00,North,0,0.0,0.0,49,0.00,,,0.00,WUHU216HW,2013-08-25 23:30:00,
2013-08-25 18:35:00,88.7,67.7,30.00,North,0,0.0,0.0,50,0.00,,,0.00,WUHU216HW,2013-08-25 23:35:00,
2013-08-25 18:40:00,88.7,67.7,30.00,North,0,0.0,0.0,51,0.00,,,0.00,WUHU216HW,2013-08-25 23:40:00,
2013-08-25 18:45:00,89.0,68.5,30.00,North,0,0.0,0.0,51,0.00,,,0.00,WUHU216HW,2013-08-25 23:45:00,
2013-08-25 18:50:00,89.0,68.5,30.00,North,0,0.0,0.0,51,0.00,,,0.00,WUHU216HW,2013-08-25 23:50:00,
2013-08-25 18:59:00,88.8,67.8,30.00,North,0,0.0,0.0,50,0.00,,,0.00,WUHU216HW,2013-08-25 23:59:00,
2013-08-25 19:04:00,88.7,67.7,30.00,North,0,0.0,0.0,50,0.00,,,0.00,WUHU216HW,2013-08-26 00:04:00,
2013-08-25 19:09:00,88.3,67.4,30.00,North,0,0.0,0.0,51,0.00,,,0.00,WUHU216HW,2013-08-26 00:09:00,
2013-08-25 19:14:00,88.3,67.4,30.00,North,0,0.0,0.0,51,0.00,,,0.00,WUHU216HW,2013-08-26 00:14:00,
2013-08-25 20:19:00,84.3,66.9,30.02,North,0,0.0,0.0,56,0.00,,,0.00,WUHU216HW,2013-08-26 01:19:00,
2013-08-25 20:24:00,84.0,67.1,30.02,North,0,0.0,0.0,57,0.00,,,0.00,WUHU216HW,2013-08-26 01:24:00,
2013-08-25 20:29:00,83.8,66.9,30.02,North,0,0.0,0.0,57,0.00,,,0.00,WUHU216HW,2013-08-26 01:29:00,
2013-08-25 20:34:00,83.4,67.1,30.02,North,0,0.0,0.0,58,0.00,,,0.00,WUHU216HW,2013-08-26 01:34:00,
2013-08-25 20:39:00,83.4,67.1,30.02,North,0,0.0,0.0,58,0.00,,,0.00,WUHU216HW,2013-08-26 01:39:00,
2013-08-25 20:44:00,82.9,67.1,30.02,North,0,0.0,0.0,59,0.00,,,0.00,WUHU216HW,2013-08-26 01:44:00,
2013-08-25 20:49:00,82.9,67.1,30.02,North,0,0.0,0.0,59,0.00,,,0.00,WUHU216HW,2013-08-26 01:49:00,
2013-08-25 20:54:00,82.4,67.1,30.02,North,0,0.0,0.0,60,0.00,,,0.00,WUHU216HW,2013-08-26 01:54:00,
2013-08-25 20:59:00,82.4,67.1,30.02,North,0,0.0,0.0,60,0.00,,,0.00,WUHU216HW,2013-08-26 01:59:00,
2013-08-25 21:46:00,80.9,67.1,30.05,North,0,0.0,0.0,64,0.00,,,0.00,WUHU216HW,2013-08-26 02:46:00,
2013-08-25 21:51:00,80.7,67.4,30.05,North,0,0.0,0.0,64,0.00,,,0.00,WUHU216HW,2013-08-26 02:51:00,
2013-08-25 21:56:00,80.4,67.1,30.05,North,0,0.0,0.0,64,0.00,,,0.00,WUHU216HW,2013-08-26 02:56:00,
2013-08-25 22:01:00,80.4,67.1,30.05,North,0,0.0,0.0,64,0.00,,,0.00,WUHU216HW,2013-08-26 03:01:00,
2013-08-25 22:22:00,79.8,67.4,30.05,North,0,0.0,0.0,66,0.00,,,0.00,WUHU216HW,2013-08-26 03:22:00,
2013-08-25 22:52:00,78.8,67.7,30.05,North,0,0.0,0.0,69,0.00,,,0.00,WUHU216HW,2013-08-26 03:52:00,
2013-08-25 22:57:00,78.6,67.5,30.06,North,0,0.0,0.0,70,0.00,,,0.00,WUHU216HW,2013-08-26 03:57:00,
2013-08-25 23:02:00,78.6,67.5,30.06,North,0,0.0,0.0,70,0.00,,,0.00,WUHU216HW,2013-08-26 04:02:00,
2013-08-25 23:07:00,78.6,67.5,30.06,North,0,0.0,0.0,70,0.00,,,0.00,WUHU216HW,2013-08-26 04:07:00,
2013-08-25 23:12:00,78.6,67.5,30.06,North,0,0.0,0.0,69,0.00,,,0.00,WUHU216HW,2013-08-26 04:12:00,
2013-08-25 23:17:00,78.6,67.5,30.06,North,0,0.0,0.0,69,0.00,,,0.00,WUHU216HW,2013-08-26 04:17:00,
2013-08-25 23:22:00,78.6,67.5,30.06,North,0,0.0,0.0,68,0.00,,,0.00,WUHU216HW,2013-08-26 04:22:00,
2013-08-25 23:27:00,78.6,67.5,30.06,North,0,0.0,0.0,68,0.00,,,0.00,WUHU216HW,2013-08-26 04:27:00,
2013-08-25 23:32:00,78.6,67.5,30.06,North,0,0.0,0.0,68,0.00,,,0.00,WUHU216HW,2013-08-26 04:32:00,
2013-08-25 23:37:00,78.4,67.4,30.06,North,0,0.0,0.0,69,0.00,,,0.00,WUHU216HW,2013-08-26 04:37:00,
2013-08-25 23:42:00,78.2,67.2,30.06,North,0,0.0,0.0,69,0.00,,,0.00,WUHU216HW,2013-08-26 04:42:00,
2013-08-25 23:47:00,78.2,67.2,30.06,North,0,0.0,0.0,69,0.00,,,0.00,WUHU216HW,2013-08-26 04:47:00,
2013-08-25 23:52:00,78.0,67.0,30.06,North,0,0.0,0.0,69,0.00,,,0.00,WUHU216HW,2013-08-26 04:52:00,
2013-08-25 23:57:00,77.9,66.9,30.06,North,0,0.0,0.0,70,0.00,,,0.00,WUHU216HW,2013-08-26 04:57:00,